Location: ??????????
(54.8537°N, 38.8755°E)
Time: 22:40:16
(UTC+00:00)

Transit 2A Rocket - Pass Details

Date: 13 September 2024
Orbit: 582 x 908 km, 66.7° (Epoch: 09 October)

Event Time Altitude Azimuth Distance (km) Brightness Sun altitude
Exits shadow 22:41:52 69° 308° (NW) 973 5.4 -29.4°
Maximum altitude 22:41:59 69° 317° (NW) 972 5.4 -29.4°
Drops below altitude 10° 22:48:04 10° 41° (NE) 2,592 8.6 -29.0°
Sets 22:50:36 0° 44° (NE) 3,516 9.5 -28.9°
